TimePDT,TemperatureF,Dew PointF,Humidity,Sea Level PressureIn,VisibilityMPH,Wind Direction,Wind SpeedMPH,Gust SpeedMPH,PrecipitationIn,Events,Conditions,WindDirDegrees,DateUTC
12:53 AM,55.9,39.9,55,29.88,10.0,Calm,Calm,-,N/A,,Clear,0,2013-05-27 07:53:00
1:53 AM,48.9,43.0,80,29.89,10.0,Calm,Calm,-,N/A,,Clear,0,2013-05-27 08:53:00
2:53 AM,52.0,39.0,61,29.88,10.0,NNW,5.8,-,N/A,,Clear,330,2013-05-27 09:53:00
3:53 AM,46.9,42.1,83,29.88,10.0,NE,6.9,-,N/A,,Clear,50,2013-05-27 10:53:00
4:53 AM,45.0,42.1,90,29.89,10.0,NNW,3.5,-,N/A,,Clear,340,2013-05-27 11:53:00
5:53 AM,43.0,39.9,89,29.88,10.0,NNE,5.8,-,N/A,,Clear,30,2013-05-27 12:53:00
6:53 AM,48.0,43.0,83,29.88,10.0,NE,4.6,-,N/A,,Clear,40,2013-05-27 13:53:00
7:53 AM,51.1,43.0,74,29.88,10.0,NE,3.5,-,N/A,,Clear,50,2013-05-27 14:53:00
8:53 AM,53.1,44.1,71,29.86,10.0,NW,3.5,-,N/A,,Clear,320,2013-05-27 15:53:00
9:53 AM,59.0,42.1,53,29.84,10.0,South,8.1,-,N/A,,Clear,190,2013-05-27 16:53:00
10:53 AM,61.0,41.0,48,29.83,10.0,South,10.4,-,N/A,,Clear,190,2013-05-27 17:53:00
11:53 AM,63.0,39.0,41,29.83,10.0,SW,13.8,-,N/A,,Scattered Clouds,230,2013-05-27 18:53:00
12:53 PM,64.0,39.0,40,29.81,10.0,SSW,15.0,20.7,N/A,,Mostly Cloudy,200,2013-05-27 19:53:00
1:53 PM,64.0,39.9,41,29.81,10.0,SSW,12.7,19.6,N/A,,Overcast,200,2013-05-27 20:53:00
2:53 PM,60.1,42.1,51,29.81,10.0,SSW,12.7,21.9,0.00,,Overcast,200,2013-05-27 21:53:00
3:53 PM,60.1,44.1,55,29.81,10.0,South,13.8,-,0.00,,Overcast,170,2013-05-27 22:53:00
4:53 PM,55.9,46.9,72,29.81,10.0,South,11.5,-,0.00,Rain,Light Rain,180,2013-05-27 23:53:00
5:06 PM,55.4,48.2,77,29.80,10.0,South,9.2,-,0.00,Rain,Light Rain,190,2013-05-28 00:06:00
5:53 PM,55.0,50.0,83,29.81,9.0,SSW,6.9,-,0.01,Rain,Light Rain,210,2013-05-28 00:53:00
6:00 PM,53.6,51.8,94,29.79,8.0,SW,8.1,-,0.00,Rain,Light Rain,220,2013-05-28 01:00:00
6:44 PM,53.6,51.8,94,29.78,8.0,SSW,5.8,-,0.04,Rain,Light Rain,200,2013-05-28 01:44:00
6:53 PM,53.1,52.0,96,29.79,8.0,SSW,5.8,-,0.05,Rain,Light Rain,210,2013-05-28 01:53:00
7:28 PM,53.6,51.8,94,29.78,10.0,SSW,5.8,-,0.01,Rain,Light Rain,210,2013-05-28 02:28:00
7:53 PM,53.1,51.1,93,29.79,10.0,SSW,5.8,-,0.01,Rain,Light Rain,210,2013-05-28 02:53:00
8:53 PM,53.1,51.1,93,29.78,10.0,Calm,Calm,-,0.01,,Overcast,0,2013-05-28 03:53:00
9:50 PM,51.8,51.8,100,29.78,10.0,Calm,Calm,-,N/A,,Mostly Cloudy,0,2013-05-28 04:50:00
9:53 PM,52.0,51.1,97,29.78,10.0,Calm,Calm,-,N/A,,Mostly Cloudy,0,2013-05-28 04:53:00
10:09 PM,53.6,51.8,94,29.78,10.0,Calm,Calm,-,N/A,,Mostly Cloudy,0,2013-05-28 05:09:00
10:53 PM,52.0,51.1,97,29.78,6.0,Calm,Calm,-,N/A,,Scattered Clouds,0,2013-05-28 05:53:00
10:56 PM,51.8,51.8,100,29.78,1.5,Calm,Calm,-,N/A,,Partly Cloudy,0,2013-05-28 05:56:00
11:00 PM,51.8,50.0,94,29.78,0.8,Calm,Calm,-,N/A,,Mist,0,2013-05-28 06:00:00
11:11 PM,50.0,48.2,94,29.78,0.5,Calm,Calm,-,N/A,Fog,Fog,0,2013-05-28 06:11:00
11:20 PM,50.0,48.2,94,29.78,0.2,Calm,Calm,-,N/A,Fog,Fog,0,2013-05-28 06:20:00
11:30 PM,50.0,48.2,94,29.78,0.2,Calm,Calm,-,N/A,Fog,Fog,0,2013-05-28 06:30:00
11:41 PM,50.0,48.2,94,29.78,0.5,Calm,Calm,-,N/A,Fog,Fog,0,2013-05-28 06:41:00
11:53 PM,50.0,48.0,93,29.78,0.5,NNE,3.5,-,N/A,Fog,Fog,30,2013-05-28 06:53:00